Lakehurst NAS, NJ

4:33 PM EDT on April 24, 2017 (GMT -0400)
Lakehurst Naes

Weather History for KNEL - December, 2012

Change the Weather History Date:

Saturday, December 29, 2012

  Actual Average Record
Temperature  
Mean Temperature 31 °F -  
Max Temperature 32 °F 39 °F 50 °F (2005)
Min Temperature 26 °F 29 °F 12 °F (2000)
Degree Days  
Heating Degree Days 34    
Moisture  
Dew Point 30 °F    
Average Humidity 92    
Maximum Humidity 100    
Minimum Humidity 82    
Precipitation  
Precipitation 0.00 in - - ()
Sea Level Pressure  
Sea Level Pressure 29.71 in    
Wind  
Wind Speed 3 mph (NNW)    
Max Wind Speed 14 mph    
Max Gust Speed 26 mph    
Averages and records for this station are not official NWS values.
T = Trace of Precipitation, MM = Missing Value Source: NWS Daily Summary

Daily Weather History Graph

Daily Weather History Graph

Search for Another Location

Airport or City:

Trip Planner

Search our weather history database for the weather conditions in past years. The results will help you decide how hot, cold, wet, or windy it might be!

Date:

Astronomy

Dec. 29, 2012 Rise Set
Actual Time 7:18 AM EST 4:40 PM EST
Civil Twilight 6:48 AM EST 5:11 PM EST
Nautical Twilight 6:14 AM EST 5:45 PM EST
Astronomical Twilight 5:41 AM EST 6:18 PM EST
Moon 6:11 PM EST (12/29) 7:50 AM EST (12/29)
Length of Visible Light 10h 22m
Length of Day
9h 21m
Full, 98% of the Moon is Illuminated
Dec 29
Full
Jan 4
Last Quarter
Jan 11
New
Jan 18
First Quarter
Jan 26
Full

Hourly Weather History & Observations

Time (EST) Temp. Windchill Dew Point Humidity Pressure Visibility Wind Dir Wind Speed Gust Speed Precip Events Conditions
12:00 AM 26.1 °F - 23.0 °F 88% 30.03 in - Calm Calm - N/A   Clear
1:00 AM 27.0 °F - 26.1 °F 96% 30.03 in - Calm Calm - N/A   Clear
2:00 AM 28.0 °F - 25.0 °F 88% 30.04 in - Calm Calm - N/A   Clear
3:00 AM 28.0 °F - 26.1 °F 92% 30.03 in - Calm Calm - N/A   Clear
4:00 AM 28.9 °F - 25.0 °F 85% 30.01 in - Calm Calm - N/A   Clear
5:00 AM 28.9 °F - 25.0 °F 85% 29.98 in - Calm Calm - N/A   Partly Cloudy
6:00 AM 30.0 °F - 26.1 °F 85% 29.96 in - Calm Calm - N/A   Overcast
7:00 AM 30.9 °F 26.2 °F 26.1 °F 82% 29.91 in - East 4.6 mph - N/A   Overcast
8:00 AM 32.0 °F - 28.0 °F 85% 29.88 in - Calm Calm - N/A   Overcast
8:21 AM 32.0 °F - 28.4 °F 87% 29.88 in - Calm Calm - N/A   Overcast
9:00 AM 33.1 °F 30.0 °F 28.9 °F 85% 29.84 in - NE 3.5 mph - N/A   Overcast
11:30 AM 35.6 °F 32.8 °F 33.8 °F 93% 29.72 in - North 3.5 mph - N/A Rain Rain
12:00 PM 36.0 °F 31.1 °F 34.0 °F 93% 29.69 in - North 5.8 mph - N/A Rain Rain
12:48 PM 35.6 °F 32.8 °F 35.6 °F 100% 29.64 in - Variable 3.5 mph - N/A Rain Light Rain
1:00 PM 36.0 °F 32.1 °F 35.1 °F 97% 29.62 in - NE 4.6 mph - N/A Rain Light Rain
1:12 PM 35.6 °F 31.7 °F 35.6 °F 100% 29.61 in - Variable 4.6 mph - N/A Rain Light Rain
2:00 PM 36.0 °F 33.3 °F 35.1 °F 97% 29.59 in - NNW 3.5 mph - N/A Rain Light Rain
3:00 PM 36.0 °F 32.1 °F 35.1 °F 97% 29.54 in - NNE 4.6 mph - N/A Rain Light Rain
4:00 PM 36.0 °F 33.3 °F 35.1 °F 97% 29.51 in - Variable 3.5 mph - N/A   Overcast
5:00 PM 34.0 °F 28.8 °F 33.1 °F 96% 29.50 in - NNW 5.8 mph - N/A   Overcast
6:00 PM 34.0 °F 28.8 °F 33.1 °F 96% 29.50 in - Variable 5.8 mph - N/A   Overcast
7:00 PM 33.1 °F 27.7 °F 32.0 °F 96% 29.50 in - NW 5.8 mph - N/A   Overcast
7:50 PM 33.8 °F 26.4 °F 32.0 °F 93% 29.52 in - WNW 9.2 mph - N/A   Overcast
8:00 PM 33.1 °F 27.7 °F 32.0 °F 96% 29.52 in - WNW 5.8 mph - N/A   Overcast
9:00 PM 33.1 °F 23.9 °F 30.9 °F 92% 29.55 in - WNW 12.7 mph - N/A   Overcast
9:41 PM 32.0 °F 22.5 °F 28.4 °F 87% 29.56 in - NW 12.7 mph 20.7 mph N/A   Overcast
9:58 PM 30.2 °F 19.8 °F 28.4 °F 93% 29.58 in - WNW 13.8 mph 26.5 mph N/A   Overcast
10:00 PM 30.9 °F 21.7 °F 28.9 °F 92% 29.57 in - WNW 11.5 mph 26.5 mph N/A   Overcast
10:25 PM 30.2 °F 19.8 °F 28.4 °F 93% 29.60 in - WNW 13.8 mph 21.9 mph N/A   Overcast
11:00 PM 32.0 °F 22.1 °F 28.9 °F 88% 29.62 in - WNW 13.8 mph 19.6 mph N/A   Overcast
11:06 PM 32.0 °F 22.5 °F 28.4 °F 87% 29.62 in - WNW 12.7 mph 19.6 mph N/A   Overcast